• In Hungary
  • List of Countries
  • For 7 days
  • Water Temperature
  • Satellite Maps
  • Weather Map
  • News
  • Weather Widgets
  • user-avatar
    Login

    Hourly Weather Sevan

    Today, 21 September, Thursday

    Time Temperature Precipitation Wind Pressure Humidity
    00:00 +19°C° 0 mm 1 mps 644 mmHg 49%
    01:00 +19°C° 0 mm 1 mps 644 mmHg 49%
    02:00 +18°C° 0 mm 1 mps 644 mmHg 49%
    03:00 +18°C° 0 mm 2 mps 644 mmHg 51%
    04:00 +18°C° 0 mm 1 mps 643 mmHg 49%
    05:00 +18°C° 0 mm 1 mps 643 mmHg 48%
    06:00 +18°C° 0 mm 1 mps 643 mmHg 46%
    07:00 +20°C° 0 mm 1 mps 644 mmHg 39%
    08:00 +23°C° 0 mm 1 mps 645 mmHg 33%
    09:00 +26°C° 0 mm 2 mps 646 mmHg 25%
    10:00 +27°C° 0 mm 2 mps 646 mmHg 24%
    11:00 +28°C° 0 mm 2 mps 646 mmHg 22%
    12:00 +29°C° 0 mm 2 mps 646 mmHg 21%
    13:00 +29°C° 0 mm 2 mps 645 mmHg 21%
    14:00 +30°C° 0 mm 2 mps 645 mmHg 21%
    15:00 +29°C° 0 mm 2 mps 645 mmHg 22%
    16:00 +27°C° 0 mm 2 mps 644 mmHg 25%
    17:00 +26°C° 0 mm 2 mps 644 mmHg 29%
    18:00 +24°C° 0 mm 1 mps 643 mmHg 33%
    19:00 +23°C° 0 mm 1 mps 643 mmHg 36%
    20:00 +23°C° 0 mm 2 mps 644 mmHg 39%
    21:00 +21°C° 0 mm 2 mps 644 mmHg 42%
    22:00 +20°C° 0 mm 2 mps 643 mmHg 46%
    23:00 +19°C° 0 mm 2 mps 643 mmHg 50%

    Tomorrow, 22 September, Friday

    Time Temperature Precipitation Wind Pressure Humidity
    00:00 +19°C° 0 mm 2 mps 643 mmHg 54%
    01:00 +18°C° 0 mm 2 mps 643 mmHg 56%
    02:00 +18°C° 0 mm 2 mps 643 mmHg 58%
    03:00 +18°C° 0 mm 1 mps 642 mmHg 60%
    04:00 +18°C° 0 mm 1 mps 642 mmHg 59%
    05:00 +18°C° 0 mm 1 mps 642 mmHg 59%
    06:00 +16°C° 0 mm 1 mps 642 mmHg 58%
    07:00 +20°C° 0 mm 1 mps 643 mmHg 49%
    08:00 +21°C° 0 mm 2 mps 643 mmHg 39%
    09:00 +25°C° 0 mm 2 mps 644 mmHg 30%
    10:00 +26°C° 0 mm 2 mps 644 mmHg 27%
    11:00 +27°C° 0 mm 2 mps 644 mmHg 24%
    12:00 +29°C° 0 mm 2 mps 644 mmHg 22%
    13:00 +29°C° 0.1 mm 2 mps 643 mmHg 21%
    14:00 +29°C° 0.1 mm 2 mps 643 mmHg 21%
    15:00 +29°C° 0.1 mm 2 mps 643 mmHg 21%
    16:00 +27°C° 0.1 mm 2 mps 642 mmHg 26%
    17:00 +25°C° 0.1 mm 1 mps 642 mmHg 31%
    18:00 +22°C° 0.1 mm 1 mps 641 mmHg 36%
    19:00 +22°C° 0.1 mm 1 mps 641 mmHg 42%
    20:00 +20°C° 0.1 mm 2 mps 642 mmHg 47%
    21:00 +19°C° 0.1 mm 2 mps 642 mmHg 53%
    22:00 +18°C° 0 mm 2 mps 642 mmHg 58%
    23:00 +18°C° 0 mm 2 mps 642 mmHg 62%

    Day after tomorrow, 23 September, Saturday

    Time Temperature Precipitation Wind Pressure Humidity
    00:00 +17°C° 0 mm 2 mps 642 mmHg 67%
    01:00 +17°C° 0.1 mm 2 mps 642 mmHg 68%
    02:00 +16°C° 0.1 mm 2 mps 642 mmHg 68%
    03:00 +16°C° 0.1 mm 2 mps 642 mmHg 69%
    04:00 +16°C° 0 mm 2 mps 642 mmHg 69%
    05:00 +15°C° 0 mm 2 mps 642 mmHg 69%
    06:00 +15°C° 0 mm 2 mps 642 mmHg 70%
    07:00 +17°C° 0 mm 2 mps 643 mmHg 61%
    08:00 +21°C° 0 mm 1 mps 644 mmHg 52%
    09:00 +23°C° 0 mm 1 mps 644 mmHg 43%
    10:00 +24°C° 0 mm 2 mps 645 mmHg 38%
    11:00 +26°C° 0 mm 2 mps 645 mmHg 34%
    12:00 +27°C° 0 mm 2 mps 645 mmHg 29%
    13:00 +27°C° 0.1 mm 2 mps 644 mmHg 29%
    14:00 +27°C° 0.1 mm 2 mps 644 mmHg 28%
    15:00 +27°C° 0.1 mm 2 mps 644 mmHg 28%
    16:00 +25°C° 0.5 mm 2 mps 643 mmHg 35%
    17:00 +23°C° 0.5 mm 2 mps 643 mmHg 42%
    18:00 +21°C° 0.5 mm 1 mps 643 mmHg 49%
    19:00 +19°C° 0.4 mm 2 mps 643 mmHg 55%
    20:00 +18°C° 0.4 mm 2 mps 643 mmHg 61%
    21:00 +17°C° 0.4 mm 2 mps 644 mmHg 67%
    22:00 +17°C° 0 mm 2 mps 644 mmHg 70%
    23:00 +16°C° 0 mm 2 mps 644 mmHg 72%

    24 September, Sunday

    Time Temperature Precipitation Wind Pressure Humidity
    00:00 +16°C° 0 mm 2 mps 644 mmHg 75%
    01:00 +15°C° 0 mm 2 mps 644 mmHg 76%
    02:00 +15°C° 0 mm 2 mps 644 mmHg 77%
    03:00 +14°C° 0 mm 2 mps 644 mmHg 78%
    04:00 +14°C° 0 mm 2 mps 644 mmHg 78%
    05:00 +14°C° 0 mm 2 mps 644 mmHg 78%
    06:00 +13°C° 0 mm 2 mps 644 mmHg 78%
    07:00 +15°C° 0 mm 2 mps 645 mmHg 68%
    08:00 +18°C° 0 mm 2 mps 646 mmHg 58%
    09:00 +20°C° 0 mm 2 mps 646 mmHg 48%
    10:00 +21°C° 0 mm 2 mps 646 mmHg 44%
    11:00 +24°C° 0 mm 2 mps 646 mmHg 39%
    12:00 +25°C° 0 mm 2 mps 646 mmHg 35%
    13:00 +25°C° 0 mm 2 mps 646 mmHg 34%
    14:00 +25°C° 0 mm 2 mps 646 mmHg 33%
    15:00 +26°C° 0 mm 2 mps 646 mmHg 32%
    16:00 +24°C° 0.1 mm 2 mps 645 mmHg 38%
    17:00 +21°C° 0.1 mm 2 mps 645 mmHg 44%
    18:00 +19°C° 0.1 mm 2 mps 645 mmHg 50%
    19:00 +18°C° 0.2 mm 2 mps 645 mmHg 55%
    20:00 +17°C° 0.2 mm 2 mps 645 mmHg 59%
    21:00 +16°C° 0.2 mm 3 mps 645 mmHg 63%
    22:00 +15°C° 0 mm 2 mps 645 mmHg 64%
    23:00 +15°C° 0 mm 2 mps 645 mmHg 64%

    25 September, Monday

    Time Temperature Precipitation Wind Pressure Humidity
    00:00 +14°C° 0 mm 2 mps 645 mmHg 65%
    01:00 +14°C° 0 mm 2 mps 645 mmHg 66%
    02:00 +14°C° 0 mm 2 mps 645 mmHg 68%
    03:00 +13°C° 0 mm 2 mps 644 mmHg 70%
    04:00 +13°C° 0 mm 2 mps 644 mmHg 72%
    05:00 +13°C° 0 mm 2 mps 644 mmHg 74%
    06:00 +12°C° 0 mm 2 mps 644 mmHg 76%
    07:00 +15°C° 0 mm 2 mps 645 mmHg 67%
    08:00 +18°C° 0 mm 1 mps 646 mmHg 59%
    09:00 +20°C° 0 mm 1 mps 646 mmHg 51%
    10:00 +22°C° 0 mm 1 mps 646 mmHg 46%
    11:00 +23°C° 0 mm 2 mps 646 mmHg 41%
    12:00 +24°C° 0 mm 2 mps 646 mmHg 36%
    13:00 +24°C° 0 mm 2 mps 646 mmHg 35%
    14:00 +25°C° 0 mm 2 mps 646 mmHg 34%
    15:00 +25°C° 0 mm 2 mps 645 mmHg 33%
    16:00 +23°C° 0 mm 2 mps 645 mmHg 40%
    17:00 +21°C° 0 mm 1 mps 644 mmHg 47%
    18:00 +19°C° 0 mm 1 mps 644 mmHg 54%
    19:00 +18°C° 0.1 mm 1 mps 644 mmHg 60%
    20:00 +16°C° 0.1 mm 2 mps 644 mmHg 66%
    21:00 +16°C° 0.1 mm 2 mps 645 mmHg 72%
    22:00 +15°C° 0 mm 2 mps 645 mmHg 74%
    23:00 +15°C° 0 mm 2 mps 644 mmHg 76%

    26 September, Tuesday

    Time Temperature Precipitation Wind Pressure Humidity
    00:00 +15°C° 0 mm 2 mps 644 mmHg 78%
    01:00 +15°C° 0 mm 2 mps 644 mmHg 79%
    02:00 +14°C° 0 mm 2 mps 644 mmHg 79%
    03:00 +14°C° 0 mm 2 mps 644 mmHg 80%
    04:00 +14°C° 0 mm 2 mps 644 mmHg 80%
    05:00 +13°C° 0 mm 2 mps 644 mmHg 81%
    06:00 +13°C° 0 mm 1 mps 644 mmHg 82%
    07:00 +15°C° 0 mm 2 mps 644 mmHg 71%
    08:00 +17°C° 0 mm 2 mps 645 mmHg 60%
    09:00 +19°C° 0 mm 2 mps 645 mmHg 50%
    10:00 +21°C° 0 mm 2 mps 645 mmHg 44%
    11:00 +23°C° 0 mm 2 mps 645 mmHg 39%
    12:00 +25°C° 0 mm 3 mps 645 mmHg 33%
    13:00 +25°C° 0 mm 3 mps 645 mmHg 33%
    14:00 +25°C° 0 mm 3 mps 645 mmHg 32%
    15:00 +25°C° 0 mm 3 mps 644 mmHg 31%
    16:00 +23°C° 0.2 mm 2 mps 643 mmHg 38%
    17:00 +20°C° 0.2 mm 2 mps 643 mmHg 45%
    18:00 +19°C° 0.2 mm 1 mps 642 mmHg 53%
    19:00 +19°C° 0.2 mm 1 mps 642 mmHg 57%
    20:00 +17°C° 0.2 mm 2 mps 642 mmHg 60%
    21:00 +16°C° 0.2 mm 2 mps 642 mmHg 64%
    22:00 +16°C° 0 mm 2 mps 642 mmHg 65%
    23:00 +16°C° 0 mm 2 mps 642 mmHg 67%
    Show more